x

Bodega Bay - 48nm Nnw Of San Francisco, Ca (46013) Wave Buoy

2:50am - Wed 22nd Feb 2017 All times are PST. -8 hours from GMT.

  • Sig Wave height 9.8ft
  • Swell Direction
  • Peak Period 14s
  • Average Period 8s
  • Wind
    20mph, 25mph gusts
  • Sea Temp 55°f
  • Air Temp 52°f
  • Sea Pressure 1024.8mb
  • Bodega Bay - 48nm Nnw Of San Francisco, Ca
  • Bodega Bay - 48nm Nnw Of San Francisco, Ca

More Historic Weather Station data

Upgrade to MSW Pro to gain access to the past 30 days of data for over 8000 Wavebouys and Weather Stations around the globe.

Join Pro

Comparision Forecast

View Surf forecast
   
Wed 02/22 2:50am 10ft 14s 8s 20 25 mph 1024.8mb 55f 52f
2:40am 10ft  -  8s 18 25 mph 1025mb 55f 52f
2:30am  -   -   -  18 22 mph 1024.8mb 55f 52f
2:20am  -   -   -  18 25 mph 1025mb 55f 52f
2:10am  -   -   -  18 25 mph 1025mb 55f 52f
2:00am  -   -   -  20 25 mph 1025mb 55f 52f
1:50am 10.5ft 14s 9s 20 25 mph 1025mb 55f 52f
1:40am 10.5ft  -  9s 20 25 mph 1025mb 55f 52f
1:30am  -   -   -  20 25 mph 1025mb 55f 52f
1:20am  -   -   -  18 22 mph 1025mb 55f 52f
1:10am  -   -   -  18 22 mph 1025.2mb 55f 52f
1:00am  -   -   -  18 22 mph 1025.2mb 55f 52f
12:50am 9.5ft 15s 8s 20 25 mph 1025.2mb 55f 52f
12:40am 9.5ft  -  8s 20 25 mph 1025mb 55f 53f
12:30am  -   -   -  20 25 mph 1025mb 55f 53f
12:20am  -   -   -  20 25 mph 1025mb 55f 53f
12:10am  -   -   -  20 25 mph 1025mb 55f 53f
12:00am  -   -   -  18 22 mph 1024.8mb 55f 53f
Tue 02/21 11:50pm 11ft 15s 8s 18 25 mph 1024.8mb 55f 53f
11:40pm  -   -   -  18 22 mph 1024.8mb 55f 53f
11:30pm  -   -   -  18 27 mph 1024.7mb 55f 53f
11:20pm  -   -   -  18 22 mph 1024.7mb 55f 53f
11:10pm  -   -   -  20 25 mph 1024.7mb 55f 53f
11:00pm  -   -   -  20 25 mph 1024.7mb 55f 53f
10:50pm 10ft 16s 8s 20 25 mph 1024.5mb 55f 53f
10:40pm 10ft  -  8s 18 25 mph 1024.5mb 55f 53f
10:30pm  -   -   -  18 22 mph 1024.7mb 55f 53f
10:20pm  -   -   -  18 25 mph 1024.5mb 55f 53f
10:10pm  -   -   -  18 22 mph 1024.8mb 55f 53f
10:00pm  -   -   -  16 20 mph 1024.8mb 55f 53f
9:50pm 10ft 11s 8s 16 20 mph 1024.7mb 55f 53f
9:40pm 10ft  -  8s 18 22 mph 1024.5mb 55f 53f
9:30pm  -   -   -  18 22 mph 1024.5mb 55f 53f
9:20pm  -   -   -  18 22 mph 1024.5mb 55f 53f
9:10pm  -   -   -  18 22 mph 1024.5mb - 53f
9:00pm  -   -   -  20 25 mph 1024.3mb 55f 53f
8:50pm 9.5ft 11s 8s 18 22 mph 1024.3mb 55f 53f
8:40pm 9.5ft  -  8s 18 22 mph 1024mb 55f 53f
8:30pm  -   -   -  18 22 mph 1024mb 55f 53f
8:20pm  -   -   -  18 22 mph 1023.9mb 55f 53f
8:10pm  -   -   -  18 22 mph 1023.8mb 55f 53f
8:00pm  -   -   -  18 22 mph 1023.6mb 55f 53f
7:50pm 9.5ft 9s 7s 18 22 mph 1023.6mb 55f 53f
7:40pm 9.5ft  -  7s 18 22 mph 1023.6mb 55f 53f
7:30pm  -   -   -  18 22 mph 1023.5mb 55f 53f
7:20pm  -   -   -  18 25 mph 1023.6mb 55f 53f
7:10pm  -   -   -  18 22 mph 1023.4mb 55f 53f
7:00pm  -   -   -  18 22 mph 1023.5mb 55f 53f
6:50pm 10ft 11s 8s 18 22 mph 1023.4mb 55f 53f
6:40pm  -   -   -  16 20 mph 1023.1mb 55f 53f
6:30pm  -   -   -  18 20 mph 1023mb 55f 53f
6:20pm  -   -   -  16 22 mph 1023mb 55f 53f
6:10pm  -   -   -  13 18 mph 1023mb 55f 53f
6:00pm  -   -   -  13 18 mph 1022.9mb 55f 53f
5:50pm 10ft 11s 8s 13 18 mph 1022.8mb 55f 53f
5:40pm  -   -   -  16 18 mph 1022.8mb 55f 53f
5:30pm  -   -   -  16 20 mph 1022.8mb 55f 53f
5:20pm  -   -   -  13 18 mph 1022.8mb - 53f
5:10pm  -   -   -  13 18 mph 1022.8mb 55f 53f
5:00pm  -   -   -  13 18 mph 1022.9mb 55f 53f
4:50pm 11ft 10s 8s 11 18 mph 1022.8mb 55f 53f
4:40pm 11ft  -  8s 9 11 mph 1022.8mb 55f 52f
4:30pm  -   -   -  13 25 mph 1022.8mb 55f 52f
4:20pm  -   -   -  16 25 mph 1022.5mb 55f 53f
4:10pm  -   -   -  13 16 mph 1022.5mb 55f 53f
4:00pm  -   -   -  11 16 mph 1022.6mb 55f 53f
3:50pm 10.5ft 11s 8s 13 16 mph 1022.6mb 55f 53f
3:40pm 10.5ft  -  8s 11 16 mph 1022.8mb 55f 54f
3:30pm  -   -   -  13 16 mph 1022.8mb 55f 53f
3:20pm  -   -   -  11 16 mph 1022.8mb 55f 54f
3:10pm  -   -   -  11 13 mph 1022.6mb 55f 54f
3:00pm  -   -   -  13 16 mph 1022.5mb 55f 54f
2:50pm 10ft 11s 8s 11 16 mph 1022.5mb 55f 53f
2:40pm  -   -   -  11 16 mph 1022.5mb 55f 53f
2:30pm  -   -   -  9 13 mph 1022.5mb 55f 53f
2:20pm  -   -   -  9 13 mph 1022.5mb 55f 53f
2:10pm  -   -   -  9 13 mph 1022.6mb - 53f
2:00pm  -   -   -  9 13 mph 1022.6mb 55f 53f
1:50pm 10ft 12s 8s 9 13 mph 1022.6mb 55f 54f
1:40pm  -   -   -  9 11 mph 1022.6mb 55f 53f
1:30pm  -   -   -  4 9 mph 1022.8mb 55f 53f
1:20pm  -   -   -  7 9 mph 1022.9mb 55f 53f
1:10pm  -   -   -  7 9 mph 1022.9mb 55f 53f
1:00pm  -   -   -  7 11 mph 1023mb 55f 53f
12:50pm 10.5ft 10s 8s 9 13 mph 1023.1mb 55f 53f
12:40pm  -   -   -  4 9 mph 1023.3mb 55f 53f
12:30pm  -   -   -  4 9 mph 1023.3mb 55f 53f
12:20pm  -   -   -  4 9 mph 1023.3mb 55f 53f
12:10pm  -   -   -  7 9 mph 1023.4mb 55f 53f
12:00pm  -   -   -  9 13 mph 1023.5mb 55f 53f
11:50am 9ft 10s 8s 11 16 mph 1023.5mb 55f 53f
11:40am 9ft  -  8s 13 16 mph 1023.5mb 55f 52f
11:30am  -   -   -  9 16 mph 1023.9mb 55f 53f
11:20am  -   -   -  9 13 mph 1023.9mb 55f 53f
11:10am  -   -   -  7 11 mph 1023.8mb 55f 52f
11:00am  -   -   -  9 13 mph 1023.5mb 55f 52f
10:50am 10ft 11s 8s 11 16 mph 1023.5mb 55f 53f
10:40am  -   -   -  11 16 mph 1023.1mb 55f 54f
10:30am  -   -   -  9 16 mph 1023.1mb 55f 55f
10:20am  -   -   -  11 16 mph 1023mb 55f 55f
10:10am  -   -   -  11 16 mph 1023mb 55f 55f
10:00am  -   -   -  11 16 mph 1022.9mb 55f 55f
9:50am 10ft 11s 8s 11 16 mph 1022.9mb 55f 55f
9:40am 10ft  -  8s 11 16 mph 1022.6mb 55f 55f
9:30am  -   -   -  11 16 mph 1022.5mb 55f 55f
9:20am  -   -   -  13 18 mph 1022.5mb 55f 55f
9:10am  -   -   -  13 18 mph 1022.5mb 55f 55f
9:00am  -   -   -  13 18 mph 1022.3mb 55f 55f
8:50am 10ft 10s 8s 11 16 mph 1022.1mb 55f 55f
8:40am  -   -   -  11 18 mph 1022mb 55f 55f
8:30am  -   -   -  13 18 mph 1021.9mb 55f 55f
8:20am  -   -   -  11 16 mph 1021.8mb 55f 55f
8:10am  -   -   -  11 18 mph 1021.5mb 55f 55f
8:00am  -   -   -  13 16 mph 1021.5mb 55f 55f
7:50am 12ft 11s 8s 13 16 mph 1021.3mb 55f 54f
7:40am 12ft  -  8s 13 18 mph 1021.1mb 55f 54f
7:30am  -   -   -  13 20 mph 1021.1mb 55f 54f
7:20am  -   -   -  13 20 mph 1020.9mb 55f 54f
7:10am  -   -   -  13 18 mph 1020.9mb 55f 54f
7:00am  -   -   -  13 20 mph 1020.8mb 55f 54f
6:50am 12ft 12s 8s 11 18 mph 1020.6mb 55f 54f
6:40am 12ft  -  8s 13 18 mph 1020.5mb 55f 54f
6:30am  -   -   -  13 20 mph 1020.5mb 55f 54f
6:20am  -   -   -  13 20 mph 1020.4mb 55f 54f
6:10am  -   -   -  16 22 mph 1020.4mb 55f 54f
6:00am  -   -   -  16 22 mph 1020.3mb 55f 54f
5:50am 13ft 10s 8s 18 22 mph 1020.3mb 55f 54f
5:40am  -   -   -  18 22 mph 1020.3mb 55f 54f
5:30am  -   -   -  16 22 mph 1020.1mb 55f 54f
5:20am  -   -   -  18 25 mph 1020.1mb 55f 54f
5:10am  -   -   -  18 22 mph 1020mb 55f 54f
5:00am  -   -   -  16 22 mph 1019.8mb 55f 54f
4:50am 12ft 13s 8s 13 18 mph 1019.5mb 55f 54f
4:40am 12ft  -  8s 13 18 mph 1019.5mb 55f 54f
4:30am  -   -   -  13 18 mph 1019.3mb 55f 54f
4:20am  -   -   -  13 20 mph 1019mb 55f 54f
4:10am  -   -   -  16 22 mph 1018.9mb 55f 54f
4:00am  -   -   -  16 20 mph 1018.9mb 55f 54f
3:50am 13ft 11s 8s 16 22 mph 1018.5mb 55f 54f
3:40am 13ft  -  8s 18 25 mph 1018.4mb 55f 54f
3:30am  -   -   -  18 25 mph 1018.4mb 55f 54f
3:20am  -   -   -  16 22 mph 1018.3mb 55f 54f
3:10am  -   -   -  20 27 mph 1018mb 55f 55f
3:00am  -   -   -  20 27 mph 1018mb 55f 55f
2:50am 13.5ft 11s 8s 22 27 mph 1018mb 55f 55f
2:40am  -   -   -  20 29 mph 1017.9mb 55f 55f
2:30am  -   -   -  20 27 mph 1018mb 55f 55f
2:20am  -   -   -  22 29 mph 1018mb 55f 55f
2:10am  -   -   -  22 27 mph 1017.9mb 55f 55f
2:00am  -   -   -  22 31 mph 1017.6mb 55f 55f
1:50am 13ft 11s 7s 22 29 mph 1017.5mb 55f 55f
1:40am  -   -   -  22 29 mph 1017.5mb 55f 55f
1:30am  -   -   -  22 29 mph 1017.5mb - 55f
1:20am  -   -   -  25 31 mph 1017.1mb 55f 55f
1:10am  -   -   -  25 31 mph 1017.1mb - 55f
1:00am  -   -   -  25 34 mph 1017mb 55f 56f
12:50am 14.5ft 12s 7s 25 31 mph 1017mb 55f 56f
12:40am 14.5ft  -  7s 27 34 mph 1016.5mb 55f 56f
12:30am  -   -   -  27 34 mph 1016.4mb 55f 56f
12:20am  -   -   -  25 31 mph 1016.1mb 55f 56f
12:10am  -   -   -  27 36 mph 1015.9mb 55f 56f
12:00am  -   -   -  27 36 mph 1015.5mb 55f 56f
Mon 02/20 11:50pm 14ft 8s 7s 27 36 mph 1015.5mb 55f 56f
11:40pm 14ft  -  7s 29 38 mph 1015.1mb 55f 56f
11:30pm  -   -   -  29 38 mph 1015mb 55f 56f
11:20pm  -   -   -  29 38 mph 1014.9mb 55f 56f
11:10pm  -   -   -  29 38 mph 1014.5mb 55f 56f
11:00pm  -   -   -  31 40 mph 1014.3mb 55f 57f
10:50pm 12ft 10s 7s 31 43 mph 1014mb 55f 57f
10:40pm  -   -   -  31 40 mph 1013.6mb 55f 57f
10:30pm  -   -   -  31 40 mph 1013.4mb 55f 58f
10:20pm  -   -   -  36 47 mph 1013.1mb 55f 58f
10:10pm  -   -   -  36 47 mph 1012.9mb 55f 58f
10:00pm  -   -   -  31 40 mph 1012.5mb 55f 58f
9:50pm 12.5ft 11s 7s 34 43 mph 1012.3mb 55f 58f
9:40pm  -   -   -  31 43 mph 1012mb 55f 58f
9:30pm  -   -   -  31 38 mph 1012mb 55f 57f
9:20pm  -   -   -  29 40 mph 1012mb 55f 57f
9:10pm  -   -   -  29 36 mph 1012mb 55f 57f
9:00pm  -   -   -  31 43 mph 1012mb 55f 58f
8:50pm 13ft 12s 7s 29 38 mph 1011.9mb 55f 57f
8:40pm 13ft  -  7s 29 40 mph 1011.6mb 55f 57f
8:30pm  -   -   -  29 38 mph 1011.5mb 55f 57f
8:20pm  -   -   -  31 43 mph 1011.4mb 55f 57f
8:10pm  -   -   -  29 36 mph 1011.1mb 55f 57f
8:00pm  -   -   -  29 36 mph 1011.1mb 55f 57f
7:50pm 12.5ft 14s 7s 29 38 mph 1011mb 55f 57f
7:40pm 12.5ft  -  7s 27 34 mph 1011.1mb 55f 57f
7:30pm  -   -   -  27 34 mph 1011mb 55f 57f
7:20pm  -   -   -  29 36 mph 1011mb 55f 57f
7:10pm  -   -   -  29 36 mph 1010.9mb 55f 57f
7:00pm  -   -   -  29 38 mph 1010.9mb 55f 57f
6:50pm 10.5ft 12s 7s 29 36 mph 1010.8mb 55f 57f
6:40pm 10.5ft  -  7s 29 36 mph 1010.5mb 55f 56f
6:30pm  -   -   -  29 36 mph 1010.5mb 55f 57f
6:20pm  -   -   -  27 34 mph 1010.5mb 55f 56f
6:10pm  -   -   -  25 31 mph 1010.1mb 55f 56f
6:00pm  -   -   -  27 34 mph 1010.1mb 55f 56f
5:50pm 12ft 11s 7s 25 31 mph 1010.4mb 55f 56f
5:40pm 12ft  -  7s 27 34 mph 1010.4mb 55f 56f
5:30pm  -   -   -  27 34 mph 1010.1mb 55f 56f
5:20pm  -   -   -  25 31 mph 1010mb 55f 56f
5:10pm  -   -   -  25 34 mph 1010mb - 56f
5:00pm  -   -   -  27 36 mph 1010mb 55f 56f
4:50pm 12.5ft 11s 7s 27 34 mph 1010mb 55f 55f
4:40pm  -   -   -  27 31 mph 1010.1mb 55f 55f
4:30pm  -   -   -  27 34 mph 1010.1mb 55f 55f
4:20pm  -   -   -  27 34 mph 1010mb 55f 55f
4:10pm  -   -   -  27 36 mph 1009.3mb 55f 55f
4:00pm  -   -   -  29 38 mph 1009.5mb 55f 55f
3:50pm 11ft 15s 7s 29 38 mph 1010.1mb 55f 55f
3:40pm 11ft  -  7s 29 36 mph 1010.5mb 55f 55f
3:30pm  -   -   -  29 38 mph 1010.3mb 55f 55f
3:20pm  -   -   -  31 38 mph 1010.5mb 55f 55f
3:10pm  -   -   -  31 40 mph 1010.5mb 55f 55f
3:00pm  -   -   -  31 38 mph 1010.8mb 55f 55f
2:50pm 13ft 15s 8s 31 40 mph 1010.4mb 55f 55f
2:40pm  -   -   -  31 40 mph 1010.5mb 55f 55f
2:30pm  -   -   -  34 43 mph 1010.5mb 55f 55f
2:20pm  -   -   -  31 40 mph 1011mb 55f 55f
2:10pm  -   -   -  34 40 mph 1011mb 55f 55f
2:00pm  -   -   -  31 40 mph 1010mb 55f 55f
1:50pm 12.5ft 14s 7s 31 43 mph 1010mb 55f 55f
1:40pm 12.5ft  -  7s 31 40 mph 1010.3mb 55f 55f
1:30pm  -   -   -  31 40 mph 1010.1mb 55f 55f
1:20pm  -   -   -  31 40 mph 1010.9mb 55f 55f
1:10pm  -   -   -  29 38 mph 1011.6mb 55f 55f
1:00pm  -   -   -  31 38 mph 1012mb 55f 55f
12:50pm 13.5ft 15s 8s 29 36 mph 1011.5mb 55f 55f
12:40pm  -   -   -  29 38 mph 1011.5mb 55f 55f
12:30pm  -   -   -  29 36 mph 1011.9mb 55f 55f
12:20pm  -   -   -  29 36 mph 1012.5mb 55f 55f
12:10pm  -   -   -  31 40 mph 1012.6mb 55f 55f
12:00pm  -   -   -  31 38 mph 1012.4mb 55f 56f
11:50am 12.5ft 15s 8s 31 38 mph 1012.6mb 55f 56f
11:40am 12.5ft  -  8s 31 38 mph 1012.6mb 55f 56f
11:30am  -   -   -  29 40 mph 1012.5mb 55f 56f
11:20am  -   -   -  29 40 mph 1012.1mb 55f 56f
11:10am  -   -   -  29 38 mph 1012.1mb 55f 56f
11:00am  -   -   -  29 36 mph 1012.5mb 55f 56f
10:50am 12.5ft 16s 8s 29 38 mph 1012.1mb 55f 56f
10:40am 12.5ft  -  8s 29 38 mph 1012.3mb 55f 56f
10:30am  -   -   -  29 38 mph 1012.8mb 55f 56f
10:20am  -   -   -  29 36 mph 1012.8mb 55f 56f
10:10am  -   -   -  29 38 mph 1012.5mb 55f 56f
10:00am  -   -   -  29 36 mph 1012mb 55f 56f
9:50am 12ft 16s 8s 27 34 mph 1012mb 55f 56f
9:40am 12ft  -  8s 25 31 mph 1011.5mb 55f 56f
9:30am  -   -   -  25 29 mph 1011.5mb 55f 56f
9:20am  -   -   -  25 29 mph 1011.9mb 55f 57f
9:10am  -   -   -  25 31 mph 1011.8mb 55f 56f
9:00am  -   -   -  25 31 mph 1011.6mb 55f 56f
8:50am 12.5ft 16s 8s 25 31 mph 1011.5mb 55f 56f
8:40am 12.5ft  -  8s 25 31 mph 1011.4mb 55f 57f
8:30am  -   -   -  25 31 mph 1011mb 55f 56f
8:20am  -   -   -  25 31 mph 1011mb 55f 57f
8:10am  -   -   -  22 29 mph 1011mb 55f 56f
8:00am  -   -   -  22 29 mph 1011mb 55f 56f
7:50am 13ft 14s 8s 20 27 mph 1010.5mb 55f 56f
7:40am 13ft  -  8s 20 25 mph 1010.5mb 55f 56f
7:30am  -   -   -  20 27 mph 1010.3mb 55f 56f
7:20am  -   -   -  18 25 mph 1009.9mb 55f 57f
7:10am  -   -   -  18 25 mph 1010mb 55f 57f
7:00am  -   -   -  16 22 mph 1010.3mb 55f 57f
6:50am 12ft 12s 8s 16 25 mph 1010.5mb 55f 57f
6:40am 12ft  -  8s 16 20 mph 1010.5mb 55f 57f
6:30am  -   -   -  16 22 mph 1010.5mb 55f 57f
6:20am  -   -   -  18 25 mph 1010mb 55f 57f
6:10am  -   -   -  18 22 mph 1009.9mb 55f 57f
6:00am  -   -   -  16 20 mph 1009.6mb 55f 57f
5:50am 12ft 16s 8s 18 22 mph 1010.4mb 55f 57f
5:40am 12ft  -  8s 18 22 mph 1011mb 55f 57f
5:30am  -   -   -  16 18 mph 1010.3mb 55f 57f
5:20am  -   -   -  16 20 mph 1010.5mb 55f 57f
5:10am  -   -   -  16 20 mph 1009.6mb 55f 57f
5:00am  -   -   -  18 22 mph 1009.7mb - 57f
4:50am 12.5ft 16s 8s 16 20 mph 1011mb 55f 57f
4:40am 12.5ft  -  8s 18 25 mph 1010.4mb 55f 57f
4:30am  -   -   -  18 22 mph 1009.4mb 55f 57f
4:20am  -   -   -  20 25 mph 1010.5mb 55f 57f
4:10am  -   -   -  22 27 mph 1009.5mb 55f 57f
4:00am  -   -   -  18 25 mph 1009.8mb 55f 57f
3:50am 13ft 16s 7s 22 27 mph 1009.1mb 55f 56f
3:40am 13ft  -  7s 25 31 mph 1009.4mb 55f 56f
3:30am  -   -   -  29 36 mph 1008.6mb 55f 56f
3:20am  -   -   -  34 40 mph 1008.1mb 55f 56f
3:10am  -   -   -  29 40 mph 1008.5mb 55f 56f
3:00am  -   -   -  29 38 mph 1009.8mb 55f 56f
2:50am 14ft 8s 7s 29 38 mph 1009.5mb 55f 57f
2:40am  -   -   -  31 40 mph 1009mb 55f 57f
2:30am  -   -   -  34 43 mph 1008.4mb 55f 56f
2:20am  -   -   -  29 38 mph 1008.3mb 55f 57f
2:10am  -   -   -  25 31 mph 1008.6mb 55f 57f
2:00am  -   -   -  25 31 mph 1009mb 55f 57f
1:50am 13.5ft 8s 7s 25 31 mph 1008.6mb 55f 57f
1:40am 13.5ft  -  7s 27 36 mph 1008.8mb 55f 56f
1:30am  -   -   -  29 36 mph 1008.8mb 55f 56f
1:20am  -   -   -  29 38 mph 1009.4mb 55f 56f
1:10am  -   -   -  27 36 mph 1009.6mb 55f 56f
1:00am  -   -   -  29 38 mph 1008.8mb 55f 55f
12:50am 14ft 17s 7s 31 40 mph 1008.3mb 55f 55f
12:40am 14ft  -  7s 34 45 mph 1008.5mb 55f 55f
12:30am  -   -   -  34 45 mph 1008mb 55f 55f
12:20am  -   -   -  36 47 mph 1008.6mb 55f 55f
12:10am  -   -   -  34 43 mph 1008.8mb 55f 55f
12:00am  -   -   -  31 40 mph 1009mb 55f 55f
Sun 02/19 11:50pm 13ft 8s 7s 34 43 mph 1009.8mb 55f 55f
11:40pm 13ft  -  7s 31 40 mph 1009.6mb 55f 55f
11:30pm  -   -   -  34 43 mph 1009.9mb 55f 55f
11:20pm  -   -   -  38 51 mph 1009mb 55f 55f
11:10pm  -   -   -  34 43 mph 1009.1mb 55f 55f
11:00pm  -   -   -  36 45 mph 1009.3mb 55f 55f
10:50pm 12ft 8s 7s 36 43 mph 1009.3mb 55f 55f
10:40pm 12ft  -  7s 36 45 mph 1009.1mb 55f -
10:30pm  -   -   -  34 40 mph 1009.1mb 55f 55f
10:20pm  -   -   -  34 43 mph 1009.6mb 55f 55f
10:10pm  -   -   -  34 43 mph 1009.5mb 55f 55f
10:00pm  -   -   -  31 43 mph 1010mb 55f 55f
9:50pm 11ft 8s 7s 31 40 mph 1010mb 55f 55f
9:40pm 11ft  -  7s 31 43 mph 1010mb 55f 55f
9:30pm  -   -   -  31 40 mph 1009.6mb 55f 55f
9:20pm  -   -   -  29 36 mph 1009.9mb 55f 55f
9:10pm  -   -   -  29 36 mph 1010mb 55f 55f
9:00pm  -   -   -  27 36 mph 1010mb 55f 55f
8:50pm 13ft 8s 7s 27 34 mph 1010mb 55f 55f
8:40pm 13ft  -  7s 25 34 mph 1009.8mb 55f 55f
8:30pm  -   -   -  27 34 mph 1009.5mb 55f 55f
8:20pm  -   -   -  27 34 mph 1009.5mb 55f 55f
8:10pm  -   -   -  27 34 mph 1009.4mb 55f 55f
8:00pm  -   -   -  27 34 mph 1009.1mb 55f 55f
7:50pm 12ft 8s 7s 27 34 mph 1009.4mb 55f 55f
7:40pm 12ft  -  7s 27 34 mph 1009.5mb 55f 55f
7:30pm  -   -   -  29 36 mph 1009.4mb 55f 55f
7:20pm  -   -   -  29 36 mph 1009mb 55f 55f
7:10pm  -   -   -  29 36 mph 1009mb 55f 55f
7:00pm  -   -   -  29 36 mph 1008.5mb 55f 55f
6:50pm 11.5ft 8s 7s 29 36 mph 1008.8mb 55f 55f
6:40pm 11.5ft  -  7s 27 36 mph 1008.5mb 55f 54f
6:30pm  -   -   -  27 34 mph 1008.5mb 55f 55f
6:20pm  -   -   -  29 36 mph 1008.4mb 55f 55f
6:10pm  -   -   -  27 36 mph 1008.1mb 55f 55f
6:00pm  -   -   -  29 38 mph 1008.1mb 55f 55f
5:50pm 12.5ft 8s 7s 29 38 mph 1008mb 55f 54f
5:40pm  -   -   -  29 36 mph 1008mb 55f 54f
5:30pm  -   -   -  27 36 mph 1008mb 55f 54f
5:20pm  -   -   -  27 34 mph 1007.9mb - 54f
5:10pm  -   -   -  29 36 mph 1008mb 55f 54f
5:00pm  -   -   -  29 38 mph 1008mb 55f 54f
4:50pm 12ft 7s 7s 29 36 mph 1007.9mb 55f 54f
4:40pm 12ft  -  7s 29 38 mph 1007.9mb 55f 54f
4:30pm  -   -   -  29 36 mph 1008mb 55f 54f
4:20pm  -   -   -  29 38 mph 1007.8mb 55f 54f
4:10pm  -   -   -  29 38 mph 1008mb 55f 53f
4:00pm  -   -   -  29 40 mph 1008mb 55f 53f
3:50pm 10ft 7s 6s 31 40 mph 1008mb 55f 53f
3:40pm  -   -   -  31 40 mph 1008.1mb 55f 53f
3:30pm  -   -   -  29 38 mph 1008.1mb 55f 53f
3:20pm  -   -   -  29 38 mph 1008.1mb 55f 53f
3:10pm  -   -   -  29 38 mph 1008.4mb 55f 53f
3:00pm  -   -   -  31 40 mph 1008mb 55f 53f
2:50pm 10.5ft 7s 6s 29 38 mph 1008mb 55f -
2:40pm 10.5ft  -  6s 31 38 mph 1007.9mb 55f 53f
2:30pm  -   -   -  31 40 mph 1007.6mb 55f 53f
2:20pm  -   -   -  31 40 mph 1007mb 55f 53f
2:10pm  -   -   -  31 38 mph 1007.3mb 55f 53f
2:00pm  -   -   -  29 38 mph 1007.6mb 55f 53f
1:50pm 10.5ft 7s 6s 31 40 mph 1007.6mb 55f 53f
1:40pm 10.5ft  -  6s 31 43 mph 1007.8mb 55f 53f
1:30pm  -   -   -  31 40 mph 1007.9mb 55f 53f
1:20pm  -   -   -  29 40 mph 1007.6mb 55f 53f
1:10pm  -   -   -  31 40 mph 1007.9mb 55f 53f
1:00pm  -   -   -  29 38 mph 1007.9mb 55f 53f
12:50pm 10.5ft 7s 6s 29 38 mph 1007.9mb 55f 53f
12:40pm 10.5ft  -  6s 29 36 mph 1008mb 55f 53f
12:30pm  -   -   -  29 38 mph 1008.4mb 55f 53f
12:20pm  -   -   -  31 38 mph 1008.5mb 55f 53f
12:10pm  -   -   -  31 38 mph 1008.5mb 55f 53f
12:00pm  -   -   -  31 38 mph 1008.6mb 55f 53f
11:50am 10.5ft 12s 6s 31 38 mph 1008.9mb 55f 53f
11:40am 10.5ft  -  6s 31 36 mph 1008.9mb 55f 54f
11:30am  -   -   -  31 40 mph 1008.9mb 55f 54f
11:20am  -   -   -  29 36 mph 1008.9mb 55f 54f
11:10am  -   -   -  29 38 mph 1009mb 55f 54f
11:00am  -   -   -  29 38 mph 1009mb 55f 53f
10:50am 9ft 6s 6s 29 40 mph 1008.8mb 55f 53f
10:40am 9ft  -  6s 31 38 mph 1009mb 55f 53f
10:30am  -   -   -  29 38 mph 1009mb 55f 53f
10:20am  -   -   -  31 40 mph 1008.9mb 55f 53f
10:10am  -   -   -  31 38 mph 1009mb 55f 53f
10:00am  -   -   -  31 38 mph 1009mb 55f 53f
9:50am 9ft 12s 6s 29 38 mph 1008.8mb 55f 53f
9:40am 9ft  -  6s 29 38 mph 1008.8mb 55f 53f
9:30am  -   -   -  29 38 mph 1008.6mb 55f 53f
9:20am  -   -   -  31 40 mph 1008.6mb 55f 53f
9:10am  -   -   -  29 38 mph 1008.6mb 55f 54f
9:00am  -   -   -  29 36 mph 1008.5mb 55f 53f
8:50am 9.5ft 11s 7s 29 38 mph 1008.5mb 55f 53f
8:40am 9.5ft  -  7s 29 36 mph 1008.4mb 55f 53f
8:30am  -   -   -  29 36 mph 1008.4mb 55f 53f
8:20am  -   -   -  27 36 mph 1008.1mb 55f 53f
8:10am  -   -   -  27 34 mph 1008.3mb 55f 53f
8:00am  -   -   -  27 34 mph 1008mb 55f 53f
7:50am 8.5ft 11s 6s 29 36 mph 1008mb 55f 53f
7:40am 8.5ft  -  6s 29 36 mph 1008mb 55f 53f
7:30am  -   -   -  25 34 mph 1008mb 55f 53f
7:20am  -   -   -  27 34 mph 1007.9mb 55f 53f
7:10am  -   -   -  25 31 mph 1007.8mb 55f 53f
7:00am  -   -   -  25 29 mph 1007.9mb 55f 53f
6:50am 8ft 12s 6s 25 29 mph 1008mb 55f 52f
6:40am 8ft  -  6s 22 29 mph 1007.9mb 55f 53f
6:30am  -   -   -  22 29 mph 1007.9mb 55f 53f
6:20am  -   -   -  25 31 mph 1007.9mb 55f 53f
6:10am  -   -   -  25 31 mph 1007.6mb 55f 53f
6:00am  -   -   -  22 29 mph 1007.8mb 55f 53f
5:50am 8.5ft 13s 7s 25 29 mph 1007.6mb 55f 53f
5:40am 8.5ft  -  7s 22 29 mph 1007.9mb 55f 53f
5:30am  -   -   -  22 29 mph 1007.6mb 55f 53f
5:20am  -   -   -  22 27 mph 1007.9mb 55f 53f
5:10am  -   -   -  20 27 mph 1007.9mb 55f 53f
5:00am  -   -   -  20 25 mph 1008mb 55f 52f
4:50am 7.5ft 12s 7s 20 25 mph 1008mb 55f 52f
4:40am 7.5ft  -  7s 20 25 mph 1008mb 55f 52f
4:30am  -   -   -  18 25 mph 1008mb 55f 52f
4:20am  -   -   -  20 25 mph 1008mb 55f 52f
4:10am  -   -   -  16 22 mph 1008mb 55f 51f
4:00am  -   -   -  16 22 mph 1008.3mb 55f 51f
3:50am 8.5ft 12s 8s 16 22 mph 1008.1mb 55f 51f
3:40am 8.5ft  -  8s 16 20 mph 1008.3mb 55f 50f
3:30am  -   -   -  13 18 mph 1008.8mb 55f 50f
3:20am  -   -   -  13 18 mph 1008.8mb 55f 50f
3:10am  -   -   -  13 18 mph 1008.6mb 55f 50f
3:00am  -   -   -  13 16 mph 1008.6mb 55f 50f
2:50am 9ft 12s 8s 11 16 mph 1008.9mb 55f 50f
2:40am 9ft  -  8s 13 16 mph 1008.9mb 55f 50f
2:30am  -   -   -  13 16 mph 1009mb 55f 50f
2:20am  -   -   -  13 16 mph 1008.9mb 55f 50f
2:10am  -   -   -  13 16 mph 1009mb 55f 50f
2:00am  -   -   -  11 16 mph 1009mb 55f 50f
1:50am 10ft 11s 8s 11 13 mph 1009mb 55f 50f
1:40am 10ft  -  8s 9 13 mph 1009mb 55f 50f
1:30am  -   -   -  11 13 mph 1008.8mb 55f 50f
1:20am  -   -   -  11 13 mph 1008.8mb 55f 51f
1:10am  -   -   -  9 13 mph 1008.9mb 55f 51f
1:00am  -   -   -  9 13 mph 1008.6mb 55f 51f
12:50am 9ft 13s 8s 11 13 mph 1008.8mb 55f 51f
12:40am 9ft  -  8s 11 13 mph 1008.8mb 55f 51f
12:30am  -   -   -  9 13 mph 1008.8mb 55f 51f
12:20am  -   -   -  9 13 mph 1008.9mb 55f 51f
12:10am  -   -   -  9 11 mph 1008.9mb 55f 51f
12:00am  -   -   -  9 16 mph 1008.9mb 55f 51f
Sat 02/18 11:50pm 9ft 12s 8s 7 13 mph 1009mb 55f 51f
11:40pm 9ft  -  8s 9 11 mph 1009mb 55f 51f
11:30pm  -   -   -  11 16 mph 1009.1mb 55f 51f
11:20pm  -   -   -  11 16 mph 1009mb 55f 51f
11:10pm  -   -   -  11 16 mph 1009mb 55f 51f
11:00pm  -   -   -  13 18 mph 1009mb 55f 51f
10:50pm 8.5ft 12s 8s 11 18 mph 1008.8mb 55f 51f
10:40pm 8.5ft  -  8s 13 18 mph 1008.6mb - 51f
10:30pm  -   -   -  13 18 mph 1008.8mb 55f 51f
10:20pm  -   -   -  13 18 mph 1008.6mb 55f 51f
10:10pm  -   -   -  11 18 mph 1008.5mb 55f 51f
10:00pm  -   -   -  13 18 mph 1008.4mb 55f 51f
9:50pm 9ft 13s 8s 13 20 mph 1008.4mb 55f 52f
9:40pm 9ft  -  8s 13 18 mph 1008.3mb 55f 52f
9:30pm  -   -   -  13 18 mph 1008.4mb 55f 52f
9:20pm  -   -   -  16 20 mph 1008.3mb 55f 52f
9:10pm  -   -   -  16 20 mph 1008mb 55f 52f
9:00pm  -   -   -  16 20 mph 1007.8mb 55f 52f
8:50pm 10ft 12s 8s 16 22 mph 1007.8mb 55f 52f
8:40pm  -   -   -  18 22 mph 1007.8mb 55f 52f
8:30pm  -   -   -  18 25 mph 1007.8mb 55f 52f
8:20pm  -   -   -  20 25 mph 1007.5mb 55f 52f
8:10pm  -   -   -  18 25 mph 1007.5mb 55f 52f
8:00pm  -   -   -  18 25 mph 1007mb 55f 52f
7:50pm 10ft 13s 7s 20 25 mph 1006.9mb 55f 52f
7:40pm 10ft  -  7s 20 25 mph 1006.9mb 55f 52f
7:30pm  -   -   -  20 27 mph 1007mb 55f 52f
7:20pm  -   -   -  20 27 mph 1007.1mb 55f 52f
7:10pm  -   -   -  20 27 mph 1006.9mb 55f 52f
7:00pm  -   -   -  22 27 mph 1006.5mb 55f 52f
6:50pm 10ft 11s 7s 22 29 mph 1006.5mb 55f 52f
6:40pm  -   -   -  22 27 mph 1006.6mb 55f 52f
6:30pm  -   -   -  22 27 mph 1006.5mb 55f 52f
6:20pm  -   -   -  25 29 mph 1006.3mb 55f 52f
6:10pm  -   -   -  22 27 mph 1006.3mb 55f 52f
6:00pm  -   -   -  22 29 mph 1005.9mb 55f 52f
5:50pm 10.5ft 13s 7s 22 29 mph 1005.9mb 55f 52f
5:40pm  -   -   -  22 29 mph 1005.5mb 55f 52f
5:30pm  -   -   -  22 29 mph 1005.5mb 55f 52f